Location: Greene
(44.1583°N, 70.1456°W)
Time: 00:11:11
(UTC-05:00)

Tiangong 1 - Visible Passes

Search period start: 20 January 2018 00:00
Search period end: 30 January 2018 00:00
Orbit: 263 x 287 km, 42.8° (Epoch: 19 January)

Date Brightness Start Highest point End Pass type
(mag) Time Alt. Az. Time Alt. Az. Time Alt. Az.
20 Jan 1.2 17:59:04 10° W 18:01:28 45° SSW 18:02:01 36° SSE visible
21 Jan 1.8 17:58:37 10° W 18:00:55 33° SSW 18:01:48 24° SSE visible
22 Jan 2.6 17:58:08 10° WSW 18:00:12 23° SSW 18:01:36 15° SSE visible
23 Jan 3.3 17:57:42 10° WSW 17:59:20 16° SSW 18:00:56 10° SSE visible
24 Jan 3.9 17:58:07 10° SW 17:58:17 10° SSW 17:58:26 10° SSW visible
